[[{"header":{"parameterUnit":"m.s-1","parameterCategory":1,"la1":30.2991,"la2":30.254,"lo1":-89.0895,"lo2":-89.0444,"dy":0.0017,"dx":0.0017,"nx":28,"ny":28,"refTime":"2025-07-16T21:00:00:Z","depth":0,"parameterNumber":2,"parameterNumberName":"U-component_of_WINDS"},"data":[0,0,0,0,0,0,0,0,0,0,0,0,0,0,0,0,0,0,0,0,0,0,0,0,0,0,0,0,0,0,0,0,0,0,0,0,0,0,0,0,0,0,0,0,0,0,0,0,0,0,0,0,0,0,0,0,0,0,-2.157,-2.1574,0,-2.1902,-2.1905,-2.1909,-2.2237,-2.2241,-2.2246,-2.225,-2.2579,-2.2584,-2.2588,0,0,0,0,0,0,0,0,0,0,0,0,0,-2.1211,-2.1216,-2.157,-2.1574,-2.1578,-2.1901,-2.1905,-2.191,-2.2236,-2.2242,-2.2247,-2.2252,-2.2577,-2.2583,-2.2589,0,0,0,0,0,0,0,0,0,0,0,0,0,-2.1436,-2.1218,-2.1569,-2.178,-2.1803,-2.19,-2.1906,-2.1911,-2.2235,-2.2242,-2.2248,-2.2254,-2.2576,-2.2582,-2.2589,-2.2502,0,0,-2.2611,-2.2614,0,0,0,0,0,0,0,0,-2.1423,-2.1449,-2.1745,-2.1766,-2.1791,-2.2035,-2.19,-2.2109,-2.2234,-2.207,-2.225,-2.2258,-2.2392,-2.2415,-2.2462,-2.2518,-2.2532,-2.2612,-2.2616,-2.2619,-2.2621,0,0,0,0,0,0,0,-2.1407,-2.1437,-2.1701,-2.1749,-2.1777,-2.1856,-2.1895,-2.1941,-2.219,-2.2085,-2.211,-2.2145,-2.2406,-2.2454,-2.2472,-2.2537,-2.2611,-2.2618,-2.2622,-2.2625,-2.2535,-2.2528,0,0,0,0,0,0,-2.1361,-2.1422,-2.1691,-2.1711,-2.162,-2.1857,-2.1901,-2.195,-2.2191,-2.2234,-2.2139,-2.2159,-2.2439,-2.2464,-2.2485,-2.2396,-2.2619,-2.2625,-2.263,-2.2541,-2.2533,-2.2526,0,0,0,0,0,0,-2.1352,-2.1382,-2.1677,-2.1573,-2.1617,-2.1856,-2.1908,-2.1953,-2.2002,-2.2232,-2.2277,-2.2144,-2.2445,-2.2475,-2.2496,-2.2412,-2.2629,-2.2635,-2.2549,-2.2539,-2.253,-2.2217,0,0,0,0,0,0,-2.134,-2.1377,-2.1348,-2.157,-2.1621,-2.1683,-2.1904,-2.1955,-2.2015,-2.2044,-2.2248,-2.2288,-2.2453,-2.2483,-2.2502,-2.2425,-2.2641,-2.2557,-2.2544,-2.2533,-2.2236,-2.2198,-2.2165,0,0,0,0,0,-2.1326,-2.1245,-2.1345,-2.1375,-2.1591,-2.1678,-2.1707,-2.1901,-2.2007,-2.1978,-2.2125,-2.2281,-2.2419,-2.2483,-2.2507,-2.243,-2.2563,-2.2548,-2.2534,-2.2251,-2.2205,-2.2166,0,0,0,0,0,0,-2.1003,-2.1278,-2.1391,-2.1381,-2.1504,-2.1733,-2.1703,-2.1846,-2.194,-2.1962,-2.2198,-2.2241,-2.2232,-2.2336,-2.2401,-2.2358,-2.2513,-2.2502,-2.229,-2.2248,-2.2213,-2.2185,-2.2646,0,0,0,0,0,-2.0931,-2.0982,-2.1219,-2.1186,-2.1243,-2.1461,-2.1507,-2.1646,-2.1782,-2.1835,-2.1984,-2.2107,-2.2179,-2.222,-2.2299,-2.2255,-2.2301,-2.2214,-2.2179,-2.2149,-2.2134,-2.2115,-2.2077,-2.2477,-2.2477,-2.2477,0,0,-2.0781,-2.0938,-2.0955,-2.1125,-2.1237,-2.1281,-2.1503,-2.1541,-2.1574,-2.184,-2.1868,-2.1981,-2.2135,-2.2121,-2.2123,-2.2206,-2.2035,-2.213,-2.2104,-2.2106,-2.2095,-2.2057,-2.2023,-2.2467,-2.2469,-2.247,0,0,-2.0529,-2.0655,-2.0641,-2.0749,-2.0917,-2.1064,-2.1059,-2.1268,-2.1354,-2.1388,-2.1587,-2.163,-2.1749,-2.1849,-2.1915,-2.1702,-2.1847,-2.1721,-2.1533,-2.1512,-2.148,-2.1453,-2.1372,-2.1341,-2.1708,-2.1707,-2.1707,0,-2.032,-2.0398,-2.0614,-2.0639,-2.0706,-2.0953,-2.0937,-2.1031,-2.1214,-2.1252,-2.1346,-2.1499,-2.162,-2.1631,-2.1579,-2.1627,-2.1626,-2.1696,-2.1468,-2.1443,-2.1421,-2.1346,-2.1316,-2.169,-2.1692,-2.1694,-2.1696,0,-2.0131,-2.0181,-2.0149,-2.0321,-2.0386,-2.039,-2.0603,-2.0642,-2.0776,-2.0911,-2.094,-2.1094,-2.1207,-2.1222,-2.1352,-2.1251,-2.1297,-2.1425,-2.1585,-2.1362,-2.1296,-2.1269,-2.1666,-2.1672,-2.1677,-2.1681,0,0,-1.968,-1.9974,-1.9958,-2.0038,-2.0243,-2.0284,-2.0299,-2.0412,-2.0438,-2.0557,-2.0572,-2.0668,-2.0788,-2.0863,-2.1008,-2.0989,-2.0805,-2.1121,-2.1128,-2.1051,-2.0697,-2.0593,-2.0557,-2.0905,-2.0901,-2.0897,-2.0682,0,-1.9459,-1.9502,-1.9697,-1.9681,-1.9727,-1.9964,-1.9976,-2.01,-2.0228,-2.0284,-2.0425,-2.0486,-2.0644,-2.069,-2.0683,-2.0828,-2.0735,-2.0848,-2.0915,-2.0915,-2.0863,-2.0523,-2.0415,-2.0203,-2.0658,-2.0654,-2.0651,0,-1.9206,-1.931,-1.9298,-1.9501,-1.9528,-1.9535,-1.9654,-1.9707,-1.9851,-1.9946,-2.0029,-2.0192,-2.0218,-2.0371,-2.0407,-2.0478,-2.0519,-2.0594,-2.0591,-2.0599,-2.0764,-2.0515,-2.0142,-2.0106,-2.0613,-2.0616,-2.0618,0,-1.887,-1.9009,-1.902,-1.9082,-1.9319,-1.9318,-1.9417,-1.957,-1.9624,-1.9728,-1.9765,-1.9869,-1.9923,-1.9999,-2.0184,-2.028,-2.0196,-2.0367,-2.027,-2.0264,-2.0236,-2.0234,-1.9856,-2.0272,-2.0273,-2.0273,-2.0274,0,-1.8599,-1.8581,-1.8872,-1.8877,-1.8863,-1.9088,-1.9067,-1.9188,-1.9321,-1.9352,-1.9564,-1.9587,-1.9835,-1.9885,-2.0031,-2.0035,-2.006,-2.0133,-2.017,-2.011,-2.0099,-2.0134,-2.0151,-2.0265,-2.0267,-2.0268,-2.027,0,-1.8219,-1.8414,-1.844,-1.8664,-1.872,-1.8699,-1.889,-1.8902,-1.9044,-1.908,-1.9101,-1.9322,-1.9393,-1.9588,-1.9708,-1.9806,-1.9766,-1.9841,-1.9716,-1.9739,-1.9629,-1.9634,-1.9255,-1.9214,-1.966,-1.9656,-1.9652,0,-1.803,-1.8022,-1.8246,-1.8283,-1.8373,-1.843,-1.8488,-1.8709,-1.8759,-1.8924,-1.8915,-1.9004,-1.9086,-1.9187,-1.9356,-1.9448,-1.9523,-1.9385,-1.9538,-1.9476,-1.9514,-1.9509,-1.9507,-1.9348,-1.9342,-1.9337,-1.9333,0,-1.7671,-1.7768,-1.7845,-1.7954,-1.8018,-1.8115,-1.8223,-1.824,-1.8487,-1.8533,-1.861,-1.8673,-1.8797,-1.888,-1.8999,-1.9099,-1.9253,-1.9285,-1.9266,-1.92,-1.9125,-1.9158,-1.9617,-1.929,-1.9295,-1.9298,-1.93,-1.9302,-1.7378,-1.7381,-1.7538,-1.7615,-1.7721,-1.7816,-1.7838,-1.7984,-1.8052,-1.8171,-1.8298,-1.8359,-1.8504,-1.8681,-1.8769,-1.8817,-1.89,-1.8874,-1.8867,-1.8855,-1.8824,-1.9124,-1.8841,-1.8842,-1.8844,-1.8845,-1.8846,0,-1.7025,-1.7138,-1.7208,-1.7353,-1.7413,-1.7561,-1.7688,-1.7726,-1.7778,-1.7902,-1.7979,-1.8064,-1.8146,-1.8323,-1.842,-1.8425,-1.8498,-1.8442,-1.844,-1.8459,-1.8748,-1.8752,-1.8381,-1.8381,-1.8381,-1.8381,-1.8381,-1.8381,-1.6848,-1.6859,-1.6974,-1.7038,-1.7152,-1.7215,-1.7274,-1.7362,-1.7462,-1.7548,-1.7618,-1.7735,-1.7879,-1.7988,-1.8068,-1.8119,-1.8141,-1.806,-1.8131,-1.8396,-1.844,-1.8481,-1.8486,-1.8065,-1.8064,-1.7838,-1.7836,-1.7834]},{"header":{"parameterUnit":"m.s-1","parameterCategory":1,"la1":30.2991,"la2":30.254,"lo1":-89.0895,"lo2":-89.0444,"dy":0.0017,"dx":0.0017,"nx":28,"ny":28,"refTime":"2025-07-16T21:00:00:Z","depth":0,"parameterNumber":3,"parameterNumberName":"V-component_of_WINDS"},"data":[0,0,0,0,0,0,0,0,0,0,0,0,0,0,0,0,0,0,0,0,0,0,0,0,0,0,0,0,0,0,0,0,0,0,0,0,0,0,0,0,0,0,0,0,0,0,0,0,0,0,0,0,0,0,0,0,0,0,1.767,1.7674,0,1.8031,1.8035,1.8039,1.8243,1.8244,1.8245,1.8245,1.8622,1.8631,1.8641,0,0,0,0,0,0,0,0,0,0,0,0,0,1.7163,1.7171,1.7669,1.7674,1.7678,1.803,1.8035,1.804,1.8243,1.8244,1.8245,1.8246,1.8619,1.863,1.8641,0,0,0,0,0,0,0,0,0,0,0,0,0,1.7439,1.7174,1.7669,1.7822,1.7839,1.8029,1.8035,1.8041,1.8243,1.8244,1.8245,1.8246,1.8615,1.8629,1.8643,1.871,0,0,1.8686,1.8692,0,0,0,0,0,0,0,0,1.7423,1.7458,1.7795,1.7812,1.7832,1.8093,1.7995,1.8266,1.8243,1.809,1.8245,1.8247,1.8446,1.8474,1.854,1.8727,1.8744,1.8687,1.8696,1.8702,1.8706,0,0,0,0,0,0,0,1.7404,1.7444,1.7813,1.78,1.7822,1.7875,1.7916,1.8047,1.8258,1.8103,1.8119,1.8159,1.8456,1.8525,1.855,1.8749,1.8687,1.8699,1.8708,1.8714,1.9012,1.9011,0,0,0,0,0,0,1.7359,1.7426,1.7801,1.7823,1.7626,1.7883,1.7929,1.8008,1.8257,1.8296,1.8157,1.8167,1.8501,1.8533,1.8564,1.8659,1.8702,1.8715,1.8723,1.9012,1.9012,1.9011,0,0,0,0,0,0,1.7348,1.7391,1.7787,1.7629,1.7684,1.7891,1.7979,1.8015,1.8084,1.8298,1.8337,1.8189,1.8503,1.8544,1.8672,1.8675,1.8721,1.8734,1.9013,1.9012,1.9011,1.8849,0,0,0,0,0,0,1.7332,1.7385,1.7411,1.7628,1.7691,1.7886,1.7979,1.8021,1.8107,1.8123,1.8338,1.8375,1.8507,1.865,1.8686,1.8695,1.8745,1.9014,1.9012,1.9012,1.8855,1.8843,1.8833,0,0,0,0,0,1.7314,1.7353,1.7412,1.7456,1.7727,1.7885,1.7922,1.8071,1.8107,1.8136,1.8273,1.8368,1.8668,1.8661,1.8703,1.8717,1.9014,1.9013,1.9012,1.886,1.8845,1.8833,0,0,0,0,0,0,1.7134,1.7384,1.7452,1.7562,1.77,1.7919,1.7961,1.805,1.8184,1.8193,1.8375,1.8422,1.8532,1.8638,1.8625,1.8796,1.8852,1.8859,1.8722,1.871,1.8699,1.8671,1.8757,0,0,0,0,0,1.7106,1.7211,1.7426,1.7502,1.7568,1.7751,1.7826,1.7929,1.8081,1.8141,1.8288,1.8433,1.8561,1.8642,1.8771,1.8872,1.8922,1.8902,1.8891,1.888,1.8885,1.8947,1.8941,1.9007,1.9007,1.9007,0,0,1.7052,1.7202,1.7258,1.747,1.7589,1.7696,1.78,1.7909,1.799,1.8159,1.8287,1.84,1.8575,1.8689,1.8747,1.8781,1.8878,1.8879,1.8869,1.888,1.8945,1.8938,1.8933,1.9006,1.9006,1.9006,0,0,1.7008,1.7131,1.7208,1.7325,1.7503,1.7625,1.7643,1.7849,1.7929,1.8061,1.8189,1.8291,1.8506,1.8626,1.8714,1.8714,1.8807,1.8751,1.8692,1.875,1.8745,1.8742,1.8742,1.874,1.8755,1.8754,1.8754,0,1.6919,1.7082,1.7237,1.7338,1.7428,1.7583,1.7664,1.777,1.7982,1.8042,1.8077,1.835,1.8479,1.8624,1.8623,1.869,1.8718,1.8728,1.8733,1.8731,1.873,1.8733,1.8732,1.8746,1.8747,1.8748,1.8749,0,1.6964,1.7075,1.7117,1.7314,1.741,1.75,1.7671,1.7749,1.7843,1.7961,1.8094,1.8253,1.8418,1.846,1.8554,1.8618,1.8634,1.8698,1.8758,1.8713,1.8718,1.8721,1.8735,1.8738,1.874,1.8742,0,0,1.6818,1.7098,1.7111,1.7203,1.741,1.7501,1.7599,1.7757,1.782,1.7962,1.805,1.8228,1.8289,1.8389,1.8498,1.8549,1.8539,1.8609,1.8615,1.859,1.8622,1.8572,1.857,1.8602,1.8603,1.8604,1.8607,0,1.6804,1.6984,1.7126,1.7253,1.7359,1.7507,1.7593,1.773,1.7843,1.7952,1.8079,1.8202,1.8272,1.8334,1.8391,1.8528,1.8548,1.853,1.8688,1.8691,1.8639,1.8574,1.8522,1.8517,1.861,1.8611,1.8611,0,1.6812,1.6944,1.708,1.7277,1.7327,1.74,1.7557,1.7657,1.7818,1.7897,1.8007,1.812,1.8233,1.8281,1.844,1.8424,1.8497,1.8574,1.8578,1.8599,1.8648,1.8593,1.852,1.8519,1.8616,1.8616,1.8615,0,1.6691,1.6904,1.7014,1.7088,1.7319,1.7367,1.7467,1.7628,1.7713,1.7851,1.7909,1.8058,1.814,1.8255,1.8406,1.8427,1.8549,1.861,1.862,1.8616,1.864,1.8636,1.8577,1.8685,1.8685,1.8685,1.8685,0,1.6661,1.674,1.6963,1.703,1.7122,1.7286,1.7374,1.7486,1.7628,1.7721,1.786,1.7945,1.8139,1.8249,1.8368,1.8481,1.8518,1.8586,1.8617,1.8574,1.8565,1.8626,1.863,1.8685,1.8685,1.8685,1.8685,0,1.6543,1.6695,1.6825,1.7032,1.7086,1.7145,1.7324,1.7397,1.7517,1.7634,1.7671,1.786,1.7997,1.8158,1.8348,1.8428,1.8532,1.8578,1.8476,1.8495,1.8496,1.8493,1.8473,1.848,1.858,1.8579,1.8578,0,1.6514,1.6577,1.679,1.6861,1.6955,1.7069,1.7156,1.732,1.7406,1.7592,1.7642,1.7788,1.7914,1.8125,1.8282,1.8428,1.8479,1.8462,1.8502,1.8457,1.848,1.8474,1.8482,1.8451,1.8449,1.8447,1.8446,0,1.6447,1.6518,1.6637,1.6782,1.6882,1.7005,1.7134,1.7185,1.7376,1.7466,1.7605,1.7702,1.7894,1.8038,1.8204,1.831,1.841,1.8432,1.8442,1.8399,1.8338,1.8372,1.8448,1.8432,1.8433,1.8434,1.8435,1.8436,1.6374,1.6437,1.6595,1.6724,1.6837,1.6954,1.7032,1.7161,1.7278,1.7445,1.7536,1.7673,1.7834,1.8066,1.8168,1.828,1.8315,1.8329,1.8333,1.8334,1.8322,1.8319,1.8311,1.8311,1.8312,1.8312,1.8313,0,1.6314,1.6423,1.6539,1.6713,1.6814,1.6896,1.7044,1.7124,1.7241,1.738,1.75,1.7661,1.7801,1.7967,1.8119,1.8177,1.8227,1.8211,1.8209,1.8232,1.8282,1.8258,1.8168,1.8168,1.8168,1.8168,1.8168,1.8168,1.6295,1.6405,1.6495,1.6664,1.6775,1.6907,1.6984,1.7094,1.7205,1.7377,1.7493,1.7599,1.7751,1.7914,1.8047,1.8093,1.8143,1.8114,1.8173,1.8216,1.8229,1.8241,1.8219,1.8123,1.8123,1.8115,1.8115,1.8115]}]]